Location: Wanzleben
(52.0609°N, 11.4408°E)
Time: 02:42:11
(UTC+00:00)

COSMOS 2406 - Pass Details

Date: 25 January 2021
Orbit: 841 x 865 km, 71.0° (Epoch: 05 March)

Event Time Altitude Azimuth Distance (km) Brightness Sun altitude
Rises 16:25:45 0° 329° (NNW) 3,460 6.5 -5.8°
Reaches altitude 10° 16:28:30 10° 339° (NNW) 2,520 5.7 -6.2°
Maximum altitude 16:33:42 33° 43° (NE) 1,429 4.0 -6.9°
Drops below altitude 10° 16:38:51 10° 107° (ESE) 2,503 5.2 -7.7°
Sets 16:41:34 0° 117° (ESE) 3,434 6.0 -8.1°
